Location: ??????
(30.5519°N, 47.7720°E)
Time: 07:47:16
(UTC+00:00)

PSLV R/B - Pass Details

Date: 14 May 2021
Orbit: 567 x 598 km, 98.2° (Epoch: 21 June)

Event Time Altitude Azimuth Distance (km) Brightness Sun altitude
Rises 15:56:57 0° 5° (N) 2,844 7.7 -5.0°
Reaches altitude 10° 15:59:11 10° 360° (N) 1,937 7.0 -5.4°
Maximum altitude 16:03:14 49° 285° (WNW) 766 5.1 -6.2°
Drops below altitude 10° 16:07:16 10° 210° (SSW) 1,918 6.6 -7.0°
Sets 16:09:27 0° 205° (SSW) 2,812 7.4 -7.4°
